Location: Newark
(44.2003°N, 3.2583°E)
Time: 13:32:59
(UTC+00:00)

SR - Pass Details

Date: 29 October 2019
Orbit: 574 x 882 km, 66.7° (Epoch: 11 November)

Event Time Altitude Azimuth Distance (km) Brightness Sun altitude
Rises 20:57:23 0° 249° (WSW) 3,137 - -45.3°
Reaches altitude 10° 21:00:02 10° 262° (W) 2,274 - -45.7°
Maximum altitude 21:04:24 26° 318° (NW) 1,529 - -46.3°
Drops below altitude 10° 21:09:03 10° 14° (NNE) 2,444 - -47.0°
Sets 21:12:01 0° 27° (NNE) 3,423 - -47.5°
